COSMOS 2151 (21422 NORAD) Tracking and Keplerian Element Data

This shows tracking and keplerian element data for the satellite.

Feedback or suggestion? Click here.




ElementValue
Catalog21422
NameCOSMOS 2151
Epoch Orbit65811
Epoch Day16.13897141
Epoch Year2022
RAAN92.8737
Inclination82.5004
Eccentricity0.0015657
Argument of Perigee102.1242
Mean Anonmoly258.1733
Mean Motion14.92392458
Decay Rate5.8E-06
L11 21422U 91042A 22016.13897141 .00000580 00000+0 54083-4 0 9998
L22 21422 82.5004 92.8737 0015657 102.1242 258.1733 14.92392458658111

Live tracking and technical data element details for COSMOS 2151 (NORAD 21422). COSMOS 2151 can be tracked NOW for your location showing map with azimuth and elevation plus other details from your city location.

Track the satellite on the map from your city or location and see movement details for azimuth, elevation, latitude, longitude, range, height, and movement on the map or in text.







IsCatalogInMostPopularTable: catalog: 21422, numindb: 331
Update: records affected: 1



GetName: 21422 COSMOS 2151

Hit Count: updated at: Mon, 17 Jan 2022 01:19:19 GMT